| time (UTC) | temp C | wind direction | speed KPH | gust KPH | rain 1hr cm | rain 24hr cm | rain mn cm | humidity % | barometer mb |
| 20260507064506 | 21 | 186 | 0.0 | 9.7 | 0.00 | 0.00 | 0.00 | 83 | 1010.0 |
| 20260507063006 | 21 | 158 | 0.0 | 4.8 | 0.00 | 0.00 | 0.00 | 81 | 1010.1 |
| 20260507061505 | 21 | 231 | 0.0 | 1.6 | 0.00 | 0.00 | 0.00 | 81 | 1010.7 |
| 20260507060005 | 21 | 164 | 0.0 | 1.6 | 0.00 | 0.00 | 0.00 | 80 | 1010.6 |
| 20260507054505 | 21 | 188 | 0.0 | 1.6 | 0.00 | 0.00 | 0.00 | 80 | 1010.6 |
| 20260507053005 | 21 | 210 | 0.0 | 1.6 | 0.00 | 0.00 | 0.00 | 79 | 1010.7 |
| 20260507051526 | 21 | 182 | 0.0 | 4.8 | 0.00 | 0.00 | 0.00 | 79 | 1010.7 |
| 20260507050006 | 21 | 170 | 0.0 | 3.2 | 0.00 | 0.00 | 0.00 | 79 | 1010.7 |
| 20260507044526 | 21 | 175 | 0.0 | 1.6 | 0.00 | 0.00 | 0.00 | 78 | 1010.7 |
| 20260507043005 | 21 | 193 | 0.0 | 6.4 | 0.00 | 0.00 | 0.00 | 77 | 1010.6 |
| 20260507041526 | 21 | 231 | 1.6 | 6.4 | 0.00 | 0.00 | 0.00 | 77 | 1010.8 |
| 20260507040006 | 21 | 177 | 0.0 | 8.0 | 0.00 | 0.00 | 0.00 | 76 | 1010.6 |
| 20260507034505 | 21 | 198 | 0.0 | 4.8 | 0.00 | 0.00 | 0.00 | 75 | 1010.8 |
| 20260507033026 | 21 | 208 | 0.0 | 3.2 | 0.00 | 0.00 | 0.00 | 74 | 1010.7 |
| 20260507031505 | 22 | 188 | 0.0 | 8.0 | 0.00 | 0.00 | 0.00 | 73 | 1010.9 |
| 20260507030005 | 22 | 227 | 0.0 | 6.4 | 0.00 | 0.00 | 0.00 | 72 | 1010.7 |
| 20260507024527 | 22 | 231 | 0.0 | 8.0 | 0.00 | 0.00 | 0.00 | 71 | 1010.7 |
| 20260507023025 | 22 | 197 | 0.0 | 4.8 | 0.00 | 0.00 | 0.00 | 70 | 1010.9 |
| 20260507021505 | 22 | 198 | 0.0 | 4.8 | 0.00 | 0.00 | 0.00 | 69 | 1010.9 |
| 20260507020005 | 22 | 206 | 1.6 | 4.8 | 0.00 | 0.00 | 0.00 | 68 | 1010.6 |
| 20260507014505 | 22 | 225 | 0.0 | 9.7 | 0.00 | 0.00 | 0.00 | 67 | 1010.9 |
| 20260507013005 | 22 | 185 | 0.0 | 4.8 | 0.00 | 0.00 | 0.00 | 66 | 1010.7 |
| 20260507011505 | 23 | 249 | 1.6 | 8.0 | 0.00 | 0.00 | 0.00 | 64 | 1010.9 |
| 20260507010005 | 23 | 184 | 1.6 | 9.7 | 0.00 | 0.00 | 0.00 | 63 | 1010.7 |
| 20260507004504 | 23 | 188 | 1.6 | 9.7 | 0.00 | 0.00 | 0.00 | 63 | 1010.7 |
| 20260507003004 | 24 | 245 | 1.6 | 8.0 | 0.00 | 0.00 | 0.00 | 64 | 1010.5 |
| 20260507001504 | 24 | 226 | 3.2 | 12.9 | 0.00 | 0.00 | 0.00 | 67 | 1010.2 |
| 20260507000005 | 24 | 257 | 1.6 | 12.9 | 0.00 | 0.00 | 0.00 | 68 | 1010.0 |
| 20260506234526 | 25 | 254 | 1.6 | 11.3 | 0.00 | 0.00 | 0.00 | 69 | 1010.1 |
| 20260506233005 | 25 | 223 | 1.6 | 12.9 | 0.00 | 0.00 | 0.00 | 70 | 1010.0 |
| 20260506231506 | 25 | 246 | 1.6 | 8.0 | 0.00 | 0.00 | 0.00 | 71 | 1009.8 |
| 20260506230004 | 25 | 214 | 1.6 | 12.9 | 0.00 | 0.00 | 0.00 | 71 | 1009.6 |
| 20260506224504 | 25 | 273 | 0.0 | 8.0 | 0.00 | 0.00 | 0.00 | 71 | 1009.7 |
| 20260506223005 | 25 | 220 | 1.6 | 8.0 | 0.00 | 0.00 | 0.00 | 71 | 1009.6 |
| 20260506221504 | 26 | 249 | 1.6 | 8.0 | 0.00 | 0.00 | 0.00 | 69 | 1009.6 |
| 20260506220004 | 26 | 239 | 1.6 | 4.8 | 0.00 | 0.00 | 0.00 | 68 | 1009.7 |
| 20260506214504 | 26 | 230 | 0.0 | 8.0 | 0.00 | 0.00 | 0.00 | 65 | 1009.7 |
| 20260506213005 | 26 | 156 | 0.0 | 4.8 | 0.00 | 0.00 | 0.00 | 62 | 1009.8 |
| 20260506211504 | 27 | 153 | 1.6 | 4.8 | 0.00 | 0.00 | 0.00 | 60 | 1009.8 |
| 20260506210005 | 27 | 169 | 3.2 | 11.3 | 0.00 | 0.00 | 0.00 | 61 | 1010.2 |
| 20260506204504 | 27 | 200 | 1.6 | 9.7 | 0.00 | 0.00 | 0.00 | 62 | 1010.4 |
| 20260506203025 | 27 | 225 | 1.6 | 12.9 | 0.00 | 0.00 | 0.00 | 61 | 1010.7 |
| 20260506201525 | 27 | 156 | 1.6 | 11.3 | 0.00 | 0.00 | 0.00 | 63 | 1010.9 |
| 20260506200025 | 27 | 209 | 1.6 | 9.7 | 0.00 | 0.00 | 0.00 | 60 | 1011.0 |
| 20260506194504 | 27 | 230 | 3.2 | 12.9 | 0.00 | 0.00 | 0.00 | 63 | 1011.3 |
| 20260506193005 | 27 | 148 | 1.6 | 8.0 | 0.00 | 0.00 | 0.00 | 63 | 1011.5 |
| 20260506191504 | 27 | 250 | 1.6 | 11.3 | 0.00 | 0.00 | 0.00 | 63 | 1011.6 |
| 20260506190025 | 27 | 176 | 1.6 | 9.7 | 0.00 | 0.00 | 0.00 | 62 | 1011.8 |
| 20260506184525 | 26 | 187 | 3.2 | 8.0 | 0.00 | 0.00 | 0.00 | 64 | 1011.9 |
| 20260506183005 | 27 | 169 | 1.6 | 9.7 | 0.00 | 0.00 | 0.00 | 61 | 1012.1 |
| 20260506181505 | 27 | 169 | 3.2 | 8.0 | 0.00 | 0.00 | 0.00 | 62 | 1012.4 |
| 20260506180026 | 27 | 184 | 3.2 | 11.3 | 0.00 | 0.00 | 0.00 | 61 | 1012.7 |
| 20260506174525 | 26 | 189 | 3.2 | 14.5 | 0.00 | 0.00 | 0.00 | 63 | 1012.6 |
| 20260506173005 | 26 | 192 | 1.6 | 8.0 | 0.00 | 0.00 | 0.00 | 65 | 1012.6 |
| 20260506171504 | 26 | 254 | 3.2 | 9.7 | 0.00 | 0.00 | 0.00 | 67 | 1012.9 |
| 20260506164504 | 25 | 225 | 3.2 | 16.1 | 0.00 | 0.00 | 0.00 | 69 | 1013.2 |
| 20260506163004 | 25 | 269 | 3.2 | 8.0 | 0.00 | 0.00 | 0.00 | 71 | 1013.4 |
| 20260506161525 | 24 | 229 | 4.8 | 19.3 | 0.00 | 0.00 | 0.00 | 71 | 1013.8 |
| 20260506160004 | 24 | 194 | 3.2 | 14.5 | 0.00 | 0.00 | 0.00 | 72 | 1014.2 |
| 20260506154504 | 24 | 176 | 3.2 | 9.7 | 0.00 | 0.00 | 0.00 | 74 | 1014.5 |
| 20260506153004 | 22 | 236 | 1.6 | 11.3 | 0.00 | 0.00 | 0.00 | 77 | 1014.4 |
| 20260506151504 | 22 | 181 | 3.2 | 8.0 | 0.00 | 0.00 | 0.00 | 76 | 1014.5 |
| 20260506150005 | 23 | 167 | 3.2 | 9.7 | 0.00 | 0.00 | 0.00 | 74 | 1014.7 |
| 20260506144504 | 23 | 163 | 3.2 | 17.7 | 0.00 | 0.00 | 0.00 | 73 | 1014.7 |
| 20260506143004 | 23 | 227 | 3.2 | 12.9 | 0.00 | 0.00 | 0.00 | 73 | 1014.3 |
| 20260506141504 | 23 | 192 | 4.8 | 16.1 | 0.00 | 0.00 | 0.00 | 72 | 1014.2 |
| 20260506140004 | 23 | 210 | 3.2 | 16.1 | 0.00 | 0.00 | 0.00 | 74 | 1014.2 |
| 20260506134504 | 22 | 201 | 3.2 | 17.7 | 0.00 | 0.00 | 0.00 | 76 | 1014.1 |
| 20260506133004 | 22 | 244 | 1.6 | 11.3 | 0.00 | 0.00 | 0.00 | 78 | 1014.0 |
| 20260506131505 | 21 | 222 | 1.6 | 8.0 | 0.00 | 0.00 | 0.00 | 81 | 1013.9 |
| 20260506130024 | 21 | 235 | 3.2 | 8.0 | 0.00 | 0.00 | 0.00 | 82 | 1014.1 |
| 20260506124504 | 20 | 242 | 3.2 | 8.0 | 0.00 | 0.00 | 0.00 | 83 | 1014.5 |
| 20260506123004 | 20 | 234 | 1.6 | 12.9 | 0.00 | 0.00 | 0.00 | 84 | 1014.5 |
| 20260506121504 | 19 | 242 | 1.6 | 8.0 | 0.00 | 0.00 | 0.00 | 86 | 1014.4 |
| 20260506120003 | 18 | 231 | 0.0 | 6.4 | 0.00 | 0.00 | 0.00 | 88 | 1014.7 |
| 20260506114503 | 18 | 252 | 0.0 | 4.8 | 0.00 | 0.00 | 0.00 | 89 | 1014.9 |
| 20260506113004 | 17 | 281 | 1.6 | 8.0 | 0.00 | 0.00 | 0.00 | 90 | 1014.7 |
| 20260506111504 | 17 | 206 | 0.0 | 8.0 | 0.00 | 0.00 | 0.00 | 91 | 1014.5 |
| 20260506110003 | 16 | 206 | 0.0 | 3.2 | 0.00 | 0.00 | 0.00 | 92 | 1014.3 |
| 20260506104525 | 16 | 276 | 0.0 | 4.8 | 0.00 | 0.00 | 0.00 | 92 | 1014.5 |
| 20260506103004 | 16 | 210 | 0.0 | 1.6 | 0.00 | 0.00 | 0.00 | 92 | 1014.5 |
| 20260506101505 | 16 | 255 | 0.0 | 3.2 | 0.00 | 0.00 | 0.00 | 91 | 1014.3 |
| 20260506100005 | 16 | 296 | 0.0 | 1.6 | 0.00 | 0.00 | 0.00 | 91 | 1014.1 |
| 20260506094524 | 16 | 279 | 0.0 | 3.2 | 0.00 | 0.00 | 0.00 | 91 | 1014.3 |
| 20260506093025 | 17 | 212 | 0.0 | 6.4 | 0.00 | 0.00 | 0.00 | 90 | 1014.3 |
| 20260506091525 | 17 | 247 | 0.0 | 6.4 | 0.00 | 0.00 | 0.00 | 90 | 1014.6 |
| 20260506090004 | 17 | 203 | 0.0 | 4.8 | 0.00 | 0.00 | 0.00 | 90 | 1014.7 |
| 20260506084524 | 17 | 229 | 0.0 | 6.4 | 0.00 | 0.00 | 0.00 | 90 | 1014.6 |
| 20260506083005 | 17 | 255 | 0.0 | 6.4 | 0.00 | 0.00 | 0.00 | 90 | 1014.5 |
| 20260506081503 | 17 | 185 | 0.0 | 6.4 | 0.00 | 0.00 | 0.00 | 89 | 1014.5 |
| 20260506073006 | 17 | 230 | 0.0 | 4.8 | 0.00 | 0.00 | 0.00 | 88 | 1014.5 |
| 20260506071505 | 17 | 224 | 0.0 | 4.8 | 0.00 | 0.00 | 0.00 | 88 | 1014.4 |